{"data":{"norad_id":60434,"intl_designator":"2024-144K","name":"STARLINK-32233","alt_names":[],"object_type":"PAYLOAD","status":"ACTIVE","operator":null,"country":"US","launch_date":"2024-08-12","launch_site_code":"AFETR","launch_vehicle":null,"mission":null,"orbit_class":"UNKNOWN","rcs_meters":null,"size_class":null,"mass_kg":null,"dimensions":null,"purposes":["comms"],"wikipedia_slug":null,"has_3d_model":false,"image_url":null,"decayed_at":null,"tle_current":{"epoch":"2026-09-21T01:41:35.533824Z","epoch_age_seconds":138935,"freshness":"FRESH","line1":"1 60434U 24144K   26264.07055016  .00000642  00000+0  30153-4 0  9993","line2":"2 60434  53.1610  25.2958 0001039  99.3860 260.7260 15.34383938119285","mean_motion":15.34383938,"eccentricity":0.0001039,"inclination_deg":53.161,"raan_deg":25.2958,"arg_perigee_deg":99.386,"mean_anomaly_deg":260.726,"bstar":3.0153e-5,"rev_number":11928,"period_min":93.848740483883,"perigee_km":462.04021201132,"apogee_km":463.46174853362,"semimajor_km":6840.8879802725,"source":"CELESTRAK","updated_at":"2026-09-22T09:00:49.235187Z"}}}